Current Version              Previous Version:    01  02  03  04  05  06  07  08  09  10  11  12  13  14  15  16  17  18  19  20  21  22  23  24  25  26  27  28  29  30  
   31  32  33  34  35  36  37  38  39  40  41  42  43  44  45  46  47  48  49  50  51  52  53  54  55  56  57  58  59  60  

[Printable]
985
ASUS44 KFWD 251603
RWRTX
NORTH TEXAS HOURLY WEATHER ROUNDUP
NATIONAL WEATHER SERVICE FORT WORTH TX
1100 AM CDT SAT OCT 25 2014

NOTE: "FAIR" INDICATES FEW OR NO CLOUDS BELOW 12,000 FEET WITH NO
SIGNIFICANT WEATHER AND/OR OBSTRUCTIONS TO VISIBILITY.

TXZ118-119-251700-
DALLAS/FORT WORTH METROPLEX

CITY           SKY/WX    TMP DP  RH WIND       PRES   REMARKS
DFW AIRPORT    SUNNY     76  60  57 S9        30.14F
DALLAS LOVE    SUNNY     78  60  53 SW7       30.15S
FTW MEACHAM    SUNNY     76  61  59 VRB5      30.14S
DAL-EXECUTIVE  SUNNY     79  60  52 VRB7      30.15S
FTW-ALLIANCE   SUNNY     77  60  55 SW7       30.14S
FTW-NAS-JRB    SUNNY     80  60  50 S5        30.19S
FTW-SPINKS     SUNNY     77  61  57 S8        30.17S
ARLINGTON      SUNNY     76  59  55 S7        30.15S
ADDISON        SUNNY     75  59  57 S9        30.15S
MESQUITE       SUNNY     75  59  57 S8        30.16S
LANCASTER      SUNNY     76  58  52 S7        30.17S
$$

TXZ091>094-102>105-117-120-121-131>134-251700-
NORTH CENTRAL TEXAS

CITY           SKY/WX    TMP DP  RH WIND       PRES   REMARKS
SHRMAN/DENISON SUNNY     75  63  65 SW9       30.15S
GAINESVILLE    SUNNY     74  61  64 SW6       30.15F
BRIDGEPORT     SUNNY     79  62  56 W5        30.16S
DECATUR        SUNNY     76  58  54 W6        30.15S
DENTON         SUNNY     75  61  61 S6        30.14S
MCKINNEY       SUNNY     76  60  57 SW7       30.14F
ROCKWALL       SUNNY     76  60  58 SW13G22   30.14F
TERRELL        SUNNY     79  59  50 SW13      30.16F
WAXAHACHIE     SUNNY     77  61  56 S8        30.18S
CLEBURNE       SUNNY     73  63  68 S7        30.18S
GRANBURY       SUNNY     78  60  53 SW6       30.17S
$$

TXZ083>090-098>101-113>116-127>130-139>142-154-155-251700-
WESTERN NORTH TEXAS

CITY           SKY/WX    TMP DP  RH WIND       PRES   REMARKS
WICHITA FALLS  SUNNY     77  58  51 W13       30.12S
WF-KICKAPOO    SUNNY     77  58  52 W14G22    30.15R
VERNON         SUNNY     81  52  36 W6        30.13S
ABILENE        SUNNY     79  59  50 SW15      30.18S
ABILENE-DYESS  SUNNY     80  58  46 SW5       30.17S
MINERAL WELLS  SUNNY     77  59  53 SW6       30.14S
STEPHENVILLE   SUNNY     78  60  54 SW9       30.20S
COMANCHE       SUNNY     78  62  57 W13       30.18S
COLEMAN        SUNNY     78  62  58 W15       30.20S
BRADY          SUNNY     77  59  53 SW10      30.20S
$$

TXZ143>147-156>162-174-175-251700-
CENTRAL TEXAS

CITY           SKY/WX    TMP DP  RH WIND       PRES   REMARKS
WACO           SUNNY     77  60  55 S10       30.18S
WACO-TSTC      SUNNY     75  61  60 S8        30.18F
WACO-MCGREGOR  SUNNY     79  59  50 SW9       30.19F
HILLSBORO      SUNNY     78  59  52 S9        30.18S
CORSICANA      SUNNY     78  59  51 S12       30.19S
MEXIA          SUNNY     76  61  58 SW8       30.18S
HEARNE         SUNNY     75  61  60 S3        30.20F
CAMERON        SUNNY     78  60  52 SW7       30.19S
TEMPLE         SUNNY     75  57  53 S10       30.18S
KILLEEN        SUNNY     75  60  58 SW8       30.19S
KILLEEN-SKYLRK SUNNY     77  59  53 SW7       30.18R
FORT HOOD      SUNNY     78  60  53 SW8       30.19R
GATESVILLE     SUNNY     75  61  60 SW3       30.21S
HAMILTON       SUNNY     79  58  48 W12       30.19S
LAMPASAS       SUNNY     76  62  61 SW8       30.18S
$$

TXZ095>097-106>112-122>126-135>138-148>153-164>167-251700-
EAST TEXAS

CITY           SKY/WX    TMP DP  RH WIND       PRES   REMARKS
PARIS          SUNNY     73  57  56 SW13G18   30.16S
SULPHUR SPRNGS SUNNY     76  59  55 SW13      30.17F
MOUNT PLEASANT SUNNY     76  60  56 SW6       30.18S
MINEOLA        SUNNY     75  61  60 SW7       30.18S
TYLER          SUNNY     75  59  57 SW10      30.18S
LONGVIEW       SUNNY     76  60  57 SW5       30.17F
MARSHALL       SUNNY     76  61  59 SW6       30.19S
ATHENS         SUNNY     73  59  60 SW5       30.17F
PALESTINE      SUNNY     74  62  65 SW6       30.20F
JACKSONVILLE   SUNNY     74  59  58 SW9       30.21S
HENDERSON      SUNNY     73  60  63 SW7       30.20S
NACOGDOCHES    SUNNY     72  57  60 W7        30.20S
LUFKIN         SUNNY     75  57  53 W5        30.19S
$$

SUPPLEMENTAL OBSERVATIONS (CENTRAL)

CITY           SKY/WX    TMP DP  RH WIND       PRES   REMARKS
$$

SUPPLEMENTAL OBSERVATIONS (WEST)

CITY           SKY/WX    TMP DP  RH WIND       PRES   REMARKS
$$

SUPPLEMENTAL OBSERVATIONS (EAST)

CITY           SKY/WX    TMP DP  RH WIND       PRES   REMARKS
$$

SUPPLEMENTAL OBSERVATIONS ARE A COLLECTION OF AUTOMATED INSTRUMENTS
THAT ARE MAINTAINED BY A VARIETY OF FEDERAL AND STATE AGENCIES.
CERTAIN ELEMENTS...SUCH AS HUMIDITY VALUES AND SUSTAINED WIND
SPEEDS...MAY BE APPROXIMATED.